Regional Weather Roundup
Issued by NWS

Home | Current Version | Previous Version | Graphics & Text | Print | Product List | Glossary On
Versions: 1 2 3 4 5 6 7 8 9 10 11 12 13 14 15 16 17 18 19 20 21 22 23 24 25 26 27 28 29 30 31 32 33 34 35 36 37 38 39 40 41 42 43 44 45 46 47 48 49 50
000
ASUS43 KLOT 021821
RWRIL

ILLINOIS REGIONAL WEATHER ROUNDUP
NATIONAL WEATHER SERVICE CHICAGO/ROMEOVILLE IL
100 PM CDT THU JUL 02 2015

NOTE: "FAIR" INDICATES FEW OR NO CLOUDS BELOW 12,000 FEET WITH NO
SIGNIFICANT WEATHER AND/OR OBSTRUCTIONS TO VISIBILITY.

* THESE STATIONS ARE NOT UNDER NWS QUALITY CONTROL. THEY ALSO MAY NOT
  REPORT WEATHER SUCH AS PRECIPITATION OR FOG.

ILZ001-002-007-009-015-016-024-021900-
NORTHWEST ILLINOIS

CITY           SKY/WX    TMP DP  RH WIND       PRES   REMARKS
MOLINE         PTSUNNY   70  54  56 NE13      29.99S
6HR MIN TEMP:  57; 6HR MAX TEMP:  71;

STERLING*      CLOUDY    70  57  64 E9        30.00F
$$

ILZ003-004-008-010-011-017-018-021900-
NORTH CENTRAL ILLINOIS

CITY           SKY/WX    TMP DP  RH WIND       PRES   REMARKS
ROCKFORD       PTSUNNY   70  54  56 NE9       30.02F
6HR MIN TEMP:  55; 6HR MAX TEMP:  70;

$$

ILZ005-006-012>014-019>023-021900-
NORTHEAST ILLINOIS

CITY           SKY/WX    TMP DP  RH WIND       PRES   REMARKS
CHICAGO-OHARE  MOSUNNY   68  53  58 NE13G20   30.00F
6HR MIN TEMP:  55; 6HR MAX TEMP:  68;

CHICAGO-MIDWAY MOSUNNY   70  57  63 NE15      29.99F
6HR MIN TEMP:  61; 6HR MAX TEMP:  71;

AURORA         PTSUNNY   69  55  60 E13G22    30.00F
6HR MIN TEMP:  55; 6HR MAX TEMP:  69;

WAUKEGAN       SUNNY     63  52  67 NE10      30.02F
6HR MIN TEMP:  55; 6HR MAX TEMP:  64;

DUPAGE AIRPORT MOSUNNY   68  55  63 NE10G21   29.99F
6HR MIN TEMP:  55; 6HR MAX TEMP:  69;

WHEELING       SUNNY     65  52  62 NE9       30.03F
6HR MIN TEMP:  55; 6HR MAX TEMP:  66;

NORTHERLY ISL    N/A     62  56  80 N10         N/A
$$

LMZ740>746-021900-
SOUTHERN LAKE MICHIGAN

STATION/POSITION SKY/WX   TEMP    WIND        PRES    VSBY  WAVE
                          AIR SEA DIR/SP/G                  HT/PER
                          (F)     (DEG/KT/KT) (MB)    (MI)  (FT/S)
HARRISON CRIB              57      10/ 16/ 18   N/A
BURNHAM HARBOR             62     360/ 14/ 14   N/A
CALUMET HARBOR             62      10/ 10/ 15   N/A
BURNS HARBOR               62      10/ 13/ 16 1016.3S
MICHIGAN CITY              61     360/ 16/ 18   N/A
MICHIGAN CITY 6N           62 65   20/ 14/ 19   N/A           3/ 4
ST. JOSEPH                 62 63                N/A           3/ 4
$$

ILZ025>027-034>036-040-047-049-050-058-095>099-021900-
WEST-CENTRAL ILLINOIS

CITY           SKY/WX    TMP DP  RH WIND       PRES   REMARKS
QUINCY         CLOUDY    71  58  63 NE8       29.96R
$$

ILZ028>032-037-038-041>044-048-051>054-059>061-021900-
CENTRAL ILLINOIS

CITY           SKY/WX    TMP DP  RH WIND       PRES   REMARKS
BLOOMINGTON    PTSUNNY   72  60  65 E14       29.96F
DECATUR        PTSUNNY   74  60  61 NE10      29.93S
PEORIA         PTSUNNY   72  57  59 NE10      29.96F
6HR MIN TEMP:  60; 6HR MAX TEMP:  72;

SPRINGFIELD    CLOUDY    72  59  63 NE13      29.93F
6HR MIN TEMP:  62; 6HR MAX TEMP:  72;

TAYLORVILLE    NOT AVBL
$$

ILZ033-039-045-046-055>057-062-063-021900-
EAST-CENTRAL ILLINOIS

CITY           SKY/WX    TMP DP  RH WIND       PRES   REMARKS
CHAMPAIGN      PTSUNNY   73  58  59 N10       29.93F
MATTOON        PTSUNNY   74  64  71 NE8       29.90F
$$

ILZ079-100>102-021900-
SOUTHWEST ILLINOIS

CITY           SKY/WX    TMP DP  RH WIND       PRES   REMARKS
ALTON          PTSUNNY   73  70  88 NE9       29.91F
BELLEVILLE     CLOUDY    70  67  90 NE6       29.89F
CAHOKIA*       CLOUDY    72  63  73 N8        29.91S
$$

ILZ064>066-069>071-074>076-080>082-084>086-088>090-092>094-021900-
SOUTH-CENTRAL ILLINOIS

CITY           SKY/WX    TMP DP  RH WIND       PRES   REMARKS
CARBONDALE     CLOUDY    79  71  76 N7        29.86S HX  82
6HR MIN TEMP:  71; 6HR MAX TEMP:  81; 6HR PCP: TRACE;

MT. VERNON     CLOUDY    66  61  82 N6        29.89S
$$

ILZ067-068-072-073-078-083-087-091-021900-
SOUTHEAST ILLINOIS

CITY           SKY/WX    TMP DP  RH WIND       PRES   REMARKS
LAWRENCEVILLE  CLOUDY    73  67  81 N6        29.89S
$$

ABBREVIATIONS USED IN REMARKS
   TC - TEMPERATURE IN CELSIUS
  WCI - WIND CHILL INDEX
   HX - HEAT INDEX
  VSB - VISIBILITY
$$




USA.gov is the U.S. government's official web portal to all federal, state and local government web resources and services.